K9BM Weather Reports


Display with metric or nautical units.
time (UTC)temp
F
wind
direction
speed
MPH
gust
MPH
rain 1hr
in
rain 24hr
in
rain mn
in
humidity
%
barometer
mb
20260507085005 49 238 13.0 16.0 0.00 0.06 0.06 82 1008.0
20260507084504 49 245 10.0 16.0 0.00 0.06 0.06 83 1008.4
20260507084005 49 260 12.0 17.0 0.00 0.06 0.06 83 1008.6
20260507083505 49 243 12.0 17.0 0.00 0.06 0.06 83 1008.7
20260507083005 49 251 13.0 17.0 0.00 0.06 0.06 83 1009.0
20260507082505 49 241 7.0 12.0 0.00 0.06 0.06 84 1009.2
20260507082005 48 239 9.0 12.0 0.01 0.06 0.06 85 1009.1
20260507081505 48 245 9.0 12.0 0.01 0.06 0.06 85 1009.2
20260507081004 48 240 9.0 14.0 0.01 0.06 0.06 85 1009.3
20260507080004 49 226 6.0 10.0 0.02 0.06 0.06 84 1009.4
20260507075504 49 243 6.0 9.0 0.02 0.06 0.06 84 1009.6
20260507075004 49 200 5.0 9.0 0.03 0.06 0.06 84 1009.7
20260507074504 49 213 2.0 7.0 0.04 0.06 0.06 84 1009.7
20260507074004 49 205 3.0 7.0 0.06 0.06 0.06 84 1009.8
20260507073005 49 245 5.0 10.0 0.06 0.06 0.06 83 1010.0
20260507072505 49 272 5.0 12.0 0.06 0.06 0.06 82 1010.1
20260507072006 49 260 6.0 12.0 0.05 0.05 0.05 82 1010.1
20260507071504 49 282 4.0 7.0 0.05 0.05 0.05 82 1010.4
20260507071004 49 277 3.0 6.0 0.05 0.05 0.05 82 1010.3
20260507070009 50 260 2.0 7.0 0.04 0.04 0.04 79 1010.1
20260507065505 50 278 3.0 7.0 0.04 0.04 0.04 77 1010.1
20260507065005 51 333 3.0 8.0 0.03 0.03 0.03 76 1010.2
20260507064004 51 330 6.0 9.0 0.00 0.00 0.00 70 1009.8
20260507063505 52 340 6.0 10.0 0.00 0.00 0.00 70 1009.6
20260507062505 52 9 4.0 12.0 0.00 0.00 0.00 69 1009.3
20260507062004 53 346 7.0 17.0 0.00 0.00 0.00 67 1009.2
20260507061005 54 340 13.0 20.0 0.00 0.00 0.00 62 1009.6
20260507060004 55 328 14.0 30.0 0.00 0.00 0.00 59 1009.5
20260507055004 57 320 17.0 24.0 0.00 0.00 0.00 47 1009.2
20260507054505 58 309 10.0 16.0 0.00 0.00 0.00 41 1008.9
20260507053005 58 278 9.0 13.0 0.00 0.00 0.00 40 1008.4
20260507052004 58 258 9.0 12.0 0.00 0.00 0.00 39 1008.3
20260507051504 58 255 9.0 12.0 0.00 0.00 0.00 39 1008.3
20260507051004 58 248 9.0 12.0 0.00 0.00 0.00 39 1008.4
20260507050005 58 247 9.0 12.0 0.00 0.00 0.00 39 1008.5
20260507045005 58 245 10.0 12.0 0.00 0.00 0.00 39 1008.7
20260507044504 58 245 9.0 12.0 0.00 0.00 0.00 39 1008.8
20260507044004 59 253 9.0 12.0 0.00 0.00 0.00 38 1008.9
20260507043504 59 277 9.0 12.0 0.00 0.00 0.00 38 1009.0
20260507043004 60 271 9.0 12.0 0.00 0.00 0.00 37 1009.1
20260507042504 60 284 8.0 14.0 0.00 0.00 0.00 36 1009.1
20260507042005 60 284 10.0 14.0 0.00 0.00 0.00 35 1009.0
20260507041504 60 299 10.0 14.0 0.00 0.00 0.00 35 1009.1
20260507041004 60 288 9.0 13.0 0.00 0.00 0.00 35 1009.1
20260507040005 61 278 9.0 14.0 0.00 0.00 0.00 34 1009.2
20260507035504 61 297 10.0 16.0 0.00 0.00 0.00 34 1009.3
20260507035005 61 302 9.0 16.0 0.00 0.00 0.00 33 1009.3
20260507034505 61 297 10.0 18.0 0.00 0.00 0.00 33 1009.2
20260507034005 61 287 13.0 18.0 0.00 0.00 0.00 34 1009.2
20260507033504 61 295 12.0 26.0 0.00 0.00 0.00 34 1009.4
20260507033004 61 279 14.0 26.0 0.00 0.00 0.00 35 1009.4
20260507032004 61 297 11.0 25.0 0.00 0.00 0.00 35 1009.2
20260507031504 61 305 16.0 25.0 0.00 0.00 0.00 35 1009.5
20260507031004 60 294 12.0 15.0 0.00 0.00 0.00 35 1009.3
20260507030004 60 275 9.0 12.0 0.00 0.00 0.00 35 1009.0
20260507025504 60 262 9.0 13.0 0.00 0.00 0.00 35 1009.0
20260507025004 61 268 10.0 14.0 0.00 0.00 0.00 34 1009.0
20260507024504 61 272 10.0 15.0 0.00 0.00 0.00 33 1009.0
20260507023504 61 259 10.0 14.0 0.00 0.00 0.00 33 1009.0
20260507023004 62 282 9.0 14.0 0.00 0.00 0.00 33 1009.0
20260507022504 62 284 9.0 14.0 0.00 0.00 0.00 32 1009.0
20260507021504 62 285 9.0 16.0 0.00 0.00 0.00 32 1009.0
20260507021004 62 281 12.0 16.0 0.00 0.00 0.00 31 1009.0
20260507020004 63 281 10.0 17.0 0.00 0.00 0.00 31 1009.1
20260507015005 64 284 10.0 18.0 0.00 0.00 0.00 30 1009.2
20260507014005 64 283 13.0 21.0 0.00 0.00 0.00 30 1009.3
20260507013504 64 290 13.0 25.0 0.00 0.00 0.00 29 1009.3
20260507013004 65 297 17.0 25.0 0.00 0.00 0.00 28 1009.4
20260507012504 65 295 15.0 20.0 0.00 0.00 0.00 28 1009.4
20260507012004 65 289 13.0 21.0 0.00 0.00 0.00 29 1009.5
20260507011504 65 302 14.0 26.0 0.00 0.00 0.00 28 1009.6
20260507011004 65 288 18.0 26.0 0.00 0.00 0.00 28 1009.7
20260507010004 65 292 13.0 24.0 0.00 0.00 0.00 28 1009.7
20260507005504 65 300 17.0 24.0 0.00 0.00 0.00 28 1009.7
20260507005004 65 287 12.0 24.0 0.00 0.00 0.00 29 1009.7
20260507004504 65 298 16.0 25.0 0.00 0.00 0.00 28 1009.9
20260507004004 65 283 16.0 26.0 0.00 0.00 0.00 28 1009.8
20260507003504 65 295 14.0 26.0 0.00 0.00 0.00 29 1009.9
20260507003004 64 298 13.0 25.0 0.00 0.00 0.00 29 1010.0
20260507002503 64 298 17.0 29.0 0.00 0.00 0.00 29 1010.0
20260507001504 64 292 13.0 25.0 0.00 0.00 0.00 28 1010.2
20260507001004 65 312 13.0 28.0 0.00 0.00 0.00 28 1010.2
20260507000004 65 304 13.0 22.0 0.00 0.00 0.00 28 1010.4
20260506235004 65 305 20.0 30.0 0.00 0.00 0.00 27 1010.6
20260506234504 65 307 15.0 25.0 0.00 0.00 0.00 27 1010.6
20260506234006 65 303 17.0 26.0 0.00 0.00 0.00 27 1010.6
20260506233507 65 310 18.0 26.0 0.00 0.00 0.00 27 1010.8
20260506233006 65 301 16.0 28.0 0.00 0.00 0.00 27 1010.8
20260506232505 65 315 18.0 28.0 0.00 0.00 0.00 27 1010.9
20260506232006 65 309 17.0 29.0 0.00 0.00 0.00 27 1011.0
20260506231506 64 303 20.0 29.0 0.00 0.00 0.00 27 1011.1
20260506231006 64 278 20.0 32.0 0.00 0.00 0.00 27 1011.1
20260506230006 64 302 17.0 31.0 0.00 0.00 0.00 26 1011.2
20260506225506 64 285 20.0 28.0 0.00 0.00 0.00 25 1011.3
20260506225007 64 293 20.0 26.0 0.00 0.00 0.00 25 1011.4
20260506224506 64 284 17.0 26.0 0.00 0.00 0.00 25 1011.4
20260506224006 64 301 18.0 28.0 0.00 0.00 0.00 25 1011.6
20260506222506 63 284 20.0 30.0 0.00 0.00 0.00 25 1012.1
20260506222007 63 288 17.0 30.0 0.00 0.00 0.00 26 1012.1
20260506221506 63 290 17.0 30.0 0.00 0.00 0.00 26 1012.2
20260506221006 63 281 18.0 29.0 0.00 0.00 0.00 25 1012.4
20260506220006 63 296 21.0 29.0 0.00 0.00 0.00 26 1012.4
20260506215506 63 275 17.0 29.0 0.00 0.00 0.00 26 1012.5
20260506215007 63 277 18.0 29.0 0.00 0.00 0.00 27 1012.5
20260506214506 62 276 18.0 31.0 0.00 0.00 0.00 26 1012.6
20260506214006 62 292 21.0 31.0 0.00 0.00 0.00 27 1012.7
20260506213506 62 305 21.0 26.0 0.00 0.00 0.00 28 1012.7
20260506213006 62 275 19.0 29.0 0.00 0.00 0.00 28 1012.8
20260506212506 62 286 19.0 29.0 0.00 0.00 0.00 28 1013.0
20260506212006 61 285 18.0 26.0 0.00 0.00 0.00 29 1012.9
20260506211006 61 284 20.0 26.0 0.00 0.00 0.00 27 1013.3
20260506210006 60 300 16.0 25.0 0.00 0.00 0.00 27 1013.4
20260506205506 60 272 16.0 29.0 0.00 0.00 0.00 27 1013.6
20260506204506 60 297 16.0 29.0 0.00 0.00 0.00 28 1013.8
20260506204006 59 249 16.0 26.0 0.00 0.00 0.00 28 1013.9
20260506203506 59 287 17.0 26.0 0.00 0.00 0.00 28 1014.1
20260506203006 59 261 18.0 26.0 0.00 0.00 0.00 27 1014.2
20260506202505 59 266 16.0 26.0 0.00 0.00 0.00 27 1014.3
20260506202006 58 270 16.0 24.0 0.00 0.00 0.00 28 1014.3
20260506201505 58 268 16.0 26.0 0.00 0.00 0.00 26 1014.5
20260506201006 58 251 19.0 26.0 0.00 0.00 0.00 27 1014.5
20260506200006 58 262 16.0 23.0 0.00 0.00 0.00 27 1014.7
20260506195506 57 288 13.0 26.0 0.00 0.00 0.00 29 1014.8
20260506195006 57 252 16.0 26.0 0.00 0.00 0.00 27 1014.9
20260506194506 57 279 17.0 26.0 0.00 0.00 0.00 28 1015.0
20260506194006 56 261 15.0 26.0 0.00 0.00 0.00 28 1015.0
20260506193506 56 276 20.0 26.0 0.00 0.00 0.00 28 1015.3
20260506193006 56 263 14.0 28.0 0.00 0.01 0.00 29 1015.4
20260506192506 56 274 18.0 28.0 0.00 0.01 0.00 28 1015.5
20260506192006 56 285 17.0 28.0 0.00 0.01 0.00 29 1015.4
20260506191506 55 276 18.0 26.0 0.00 0.01 0.00 28 1015.4
20260506191006 54 269 19.0 26.0 0.00 0.01 0.00 28 1015.7
20260506190006 54 275 17.0 26.0 0.00 0.01 0.00 29 1015.8
20260506185506 54 274 18.0 28.0 0.00 0.01 0.00 29 1015.8
20260506185006 54 241 16.0 28.0 0.00 0.01 0.00 30 1016.0
20260506184506 54 274 17.0 25.0 0.00 0.01 0.00 30 1016.1
20260506183006 53 238 17.0 26.0 0.00 0.01 0.00 30 1016.2
20260506182506 52 267 16.0 25.0 0.00 0.01 0.00 31 1016.4
20260506182005 52 257 14.0 26.0 0.00 0.01 0.00 34 1016.5
20260506181506 51 263 17.0 28.0 0.00 0.01 0.00 30 1016.6
20260506181006 51 252 17.0 28.0 0.00 0.01 0.00 32 1016.7
20260506180006 51 260 18.0 26.0 0.00 0.01 0.00 32 1016.9
20260506175506 50 262 17.0 26.0 0.00 0.01 0.00 32 1017.1
20260506175006 50 251 18.0 26.0 0.00 0.01 0.00 31 1017.1
20260506174506 50 249 17.0 26.0 0.00 0.01 0.00 33 1017.2
20260506174005 49 256 17.0 26.0 0.00 0.01 0.00 31 1017.4
20260506173506 49 264 16.0 26.0 0.00 0.01 0.00 31 1017.5
20260506173007 49 261 17.0 26.0 0.00 0.01 0.00 31 1017.5
20260506172506 49 275 17.0 26.0 0.00 0.01 0.00 32 1017.6
20260506172006 48 265 19.0 26.0 0.00 0.01 0.00 31 1017.6
20260506171506 48 254 19.0 26.0 0.00 0.01 0.00 31 1017.7
20260506170005 48 250 16.0 26.0 0.00 0.01 0.00 34 1017.8
20260506165506 48 254 19.0 26.0 0.00 0.01 0.00 31 1018.0
20260506165006 48 281 17.0 23.0 0.00 0.01 0.00 33 1018.0
20260506164006 47 280 17.0 23.0 0.00 0.01 0.00 33 1018.1
20260506163506 47 268 15.0 20.0 0.00 0.01 0.00 35 1018.1
20260506163006 46 275 13.0 21.0 0.00 0.01 0.00 38 1018.3
20260506162506 46 265 14.0 21.0 0.00 0.01 0.00 38 1018.4
20260506162006 45 260 16.0 26.0 0.00 0.01 0.00 38 1018.5
20260506161006 44 254 16.0 26.0 0.00 0.01 0.00 41 1018.6
20260506160005 44 255 14.0 20.0 0.00 0.01 0.00 45 1018.7
20260506155506 43 266 14.0 20.0 0.00 0.01 0.00 45 1018.7
20260506155006 43 276 16.0 20.0 0.00 0.01 0.00 43 1018.7
20260506154506 43 268 14.0 23.0 0.00 0.01 0.00 47 1018.8
20260506154007 42 264 14.0 23.0 0.00 0.01 0.00 47 1018.8
20260506153506 42 259 14.0 21.0 0.00 0.01 0.00 47 1018.9
20260506153006 42 257 13.0 18.0 0.00 0.01 0.00 48 1018.8
20260506152506 42 267 12.0 17.0 0.00 0.01 0.00 51 1018.9
20260506151505 41 255 13.0 17.0 0.00 0.01 0.00 49 1018.9
20260506151006 41 255 10.0 17.0 0.00 0.01 0.00 53 1019.0
20260506150005 39 258 10.0 14.0 0.00 0.01 0.00 59 1019.1
20260506145506 39 260 9.0 12.0 0.00 0.01 0.00 62 1019.2
20260506144006 37 271 9.0 14.0 0.00 0.01 0.00 66 1019.4
20260506143506 37 273 10.0 14.0 0.00 0.01 0.00 66 1019.5
20260506142505 36 258 7.0 12.0 0.00 0.01 0.00 67 1019.5
20260506142006 36 272 9.0 10.0 0.00 0.01 0.00 68 1019.6
20260506141506 36 248 7.0 10.0 0.00 0.01 0.00 69 1019.6
20260506141006 35 250 7.0 10.0 0.00 0.01 0.00 67 1019.6
20260506140006 34 234 5.0 7.0 0.00 0.01 0.00 68 1019.7
20260506135512 34 237 5.0 9.0 0.00 0.01 0.00 69 1019.7
20260506135006 33 234 6.0 10.0 0.00 0.01 0.00 68 1019.8
20260506134506 33 231 7.0 10.0 0.00 0.01 0.00 68 1019.8
20260506134006 33 227 6.0 10.0 0.00 0.01 0.00 69 1019.8
20260506133506 32 211 6.0 10.0 0.00 0.01 0.00 69 1019.9
20260506133006 32 232 7.0 10.0 0.00 0.01 0.00 70 1019.8
20260506132506 32 231 7.0 10.0 0.00 0.01 0.00 71 1019.8
20260506132006 31 233 8.0 10.0 0.00 0.01 0.00 71 1019.8
20260506131506 31 227 6.0 9.0 0.00 0.01 0.00 72 1019.8
20260506131006 31 212 5.0 10.0 0.00 0.01 0.00 73 1019.8
20260506130006 30 204 7.0 10.0 0.00 0.01 0.00 73 1019.8
20260506125506 30 218 6.0 10.0 0.00 0.01 0.00 74 1019.7
20260506125006 30 208 6.0 9.0 0.00 0.01 0.00 74 1019.7
20260506124505 29 223 5.0 10.0 0.00 0.01 0.00 75 1019.8
20260506124006 29 208 6.0 10.0 0.00 0.01 0.00 75 1019.8
20260506123506 29 207 6.0 9.0 0.00 0.01 0.00 76 1019.8
20260506123006 28 208 6.0 9.0 0.00 0.01 0.00 77 1019.8
20260506122505 28 230 6.0 8.0 0.00 0.01 0.00 78 1019.8
20260506122006 28 237 6.0 8.0 0.00 0.01 0.00 78 1019.8
20260506121506 27 240 6.0 8.0 0.00 0.01 0.00 78 1019.7
20260506121006 27 234 6.0 8.0 0.00 0.01 0.00 78 1019.7
20260506120005 27 231 6.0 7.0 0.00 0.01 0.00 78 1019.8
20260506115505 28 235 5.0 7.0 0.00 0.01 0.00 78 1019.7
20260506115006 28 233 5.0 8.0 0.00 0.01 0.00 77 1019.7
20260506114006 28 234 6.0 8.0 0.00 0.01 0.00 77 1019.7
20260506113506 28 231 6.0 8.0 0.00 0.01 0.00 77 1019.7
20260506113006 29 233 5.0 8.0 0.00 0.01 0.00 77 1019.7
20260506112505 29 230 5.0 7.0 0.00 0.01 0.00 77 1019.8
20260506112006 29 217 5.0 7.0 0.00 0.01 0.00 77 1019.8
20260506111505 29 216 5.0 8.0 0.00 0.01 0.00 77 1019.8
20260506111006 29 231 6.0 8.0 0.00 0.01 0.00 77 1019.8
20260506110005 29 211 6.0 10.0 0.00 0.01 0.00 78 1019.8
20260506105506 29 205 7.0 9.0 0.00 0.01 0.00 78 1019.9
20260506105006 29 203 6.0 9.0 0.00 0.01 0.00 78 1019.9
20260506104505 29 210 6.0 12.0 0.00 0.01 0.00 78 1019.9
20260506104006 29 206 6.0 12.0 0.00 0.01 0.00 78 1019.9
20260506103506 29 203 8.0 12.0 0.00 0.01 0.00 78 1019.9
20260506103006 30 204 7.0 10.0 0.00 0.01 0.00 78 1019.9
20260506102506 29 207 6.0 10.0 0.00 0.01 0.00 79 1019.9
20260506102006 29 207 6.0 10.0 0.00 0.01 0.00 80 1019.9
20260506101505 29 200 7.0 10.0 0.00 0.01 0.00 80 1019.9
20260506101006 30 217 5.0 7.0 0.00 0.01 0.00 80 1019.9
20260506100006 30 218 5.0 8.0 0.00 0.01 0.00 80 1019.9
20260506094506 30 200 6.0 9.0 0.00 0.01 0.00 79 1020.0
20260506094006 30 211 5.0 8.0 0.00 0.01 0.00 79 1020.0
20260506093506 30 206 5.0 8.0 0.00 0.01 0.00 80 1020.0
20260506093006 30 215 5.0 7.0 0.00 0.01 0.00 81 1020.1
20260506092505 30 212 5.0 7.0 0.00 0.01 0.00 81 1020.1
20260506092005 31 217 5.0 7.0 0.00 0.01 0.00 81 1020.1
20260506091505 31 239 5.0 7.0 0.00 0.01 0.00 81 1020.1
20260506085505 30 224 5.0 7.0 0.00 0.01 0.00 83 1020.1